Preview of NWS' New Version of Forecast
This preview is not operational and should not be used for support decisions.

Regional Weather Roundup (RWR)

Issued by National Weather Service (NWS)

                            
000
ASUS43 KDMX 192306
RWRIA 

WEATHER ROUNDUP FOR IOWA
NATIONAL WEATHER SERVICE DES MOINES IA
600 PM CDT SUN MAY 19 2019

NOTE: "FAIR" INDICATES FEW OR NO CLOUDS BELOW 12,000 FEET WITH NO
SIGNIFICANT WEATHER AND/OR OBSTRUCTIONS TO VISIBILITY.

* - THESE STATIONS ARE NOT NWS STATIONS...THUS NOT UNDER NWS
QUALITY CONTROL.  THEY ALSO DO NOT REPORT WEATHER SUCH 
AS PRECIPITATION OR FOG.  

IAZ001>003-012>014-020>022-031>034-043>046-200000-
   NORTHWEST IOWA
  
CITY           SKY/WX    TMP DP  RH WIND       PRES   REMARKS
CARROLL *      CLOUDY    54  45  71 W17       29.86R                  
CHEROKEE *     CLOUDY    49  44  83 NW8G17    29.88R                  
DENISON *      CLOUDY    52  45  76 NW15G22   29.89R                  
LE MARS *      CLOUDY    48  45  87 NW9G15    29.90R                  
SHELDON *      CLOUDY    45  45 100 N21       29.88R                  
SIOUX CITY     CLOUDY    49  44  83 NW15G30   29.90R                  
SPENCER        CLOUDY    46  42  86 N18G26    29.87R                  
STORM LAKE *     N/A     48  46  93 NW15G22   29.84R                  
$$
 
IAZ055>058-069>071-079>083-090>094-200000-
   SOUTHWEST IOWA
  
CITY           SKY/WX    TMP DP  RH WIND       PRES   REMARKS
ATLANTIC *     CLOUDY    55  45  67 W14G22    29.88S                  
AUDUBON *      CLOUDY    54  45  71 CALM      29.89R                  
CLARINDA *     PTSUNNY   61  46  59 NW14      29.91R                  
COUNCIL BLFS * CLOUDY    54  45  71 NW15G22   29.89S                  
CRESTON *      CLOUDY    55  45  67 W23       29.87S                  
HARLAN  *      CLOUDY    54  45  71 NW18G24   29.89R                  
LAMONI         CLOUDY    59  47  64 NW14G23   29.87R                  
RED OAK *      CLOUDY    57  46  67 NW14      29.90R                  
SHENANDOAH *   MOSUNNY   59  45  58 NW14      29.89R                  
$$
 
IAZ047>049-059>061-072>074-084-200000-
   CENTRAL IOWA
  
CITY           SKY/WX    TMP DP  RH WIND       PRES   REMARKS
AMES           CLOUDY    52  48  86 NW15G23   29.84R                  
ANKENY *       PTSUNNY   54  46  76 MISG      29.85R                  
BOONE *        CLOUDY    52  50  93 NW13G20   29.83R                  
CHARITON *     PTSUNNY   57  50  77 W15G24    29.85R                  
DES MOINES     CLOUDY    54  45  71 W14       29.85R                  
GRINNELL*      CLOUDY    51  49  94 W17       29.83R FOG              
KNOXVILLE *    CLOUDY    55  55 100 W17G26    29.84R                  
MARSHALLTOWN   CLOUDY    52  48  86 W18       29.80R                  
NEWTON *       CLOUDY    54  52  94 W14G22    29.83R                  
PELLA *        PTSUNNY   53  49  87 NW14G24   29.85R FOG              
PERRY *        CLOUDY    54  48  80 W23       29.85S                  
$$
 
IAZ004>006-015-016-023>025-035-036-200000-
   NORTH CENTRAL IOWA
  
CITY           SKY/WX    TMP DP  RH WIND       PRES   REMARKS
ALGONA *       DRIZZLE   45  45 100 N13G18    29.83R                  
CLARION *      CLOUDY    48  46  93 NW18G24   29.83R                  
ESTHERVILLE    CLOUDY    43  40  89 N14       29.86R                  
FORT DODGE *   CLOUDY    50  45  83 NW8G16    29.85R                  
MASON CITY     CLOUDY    47  42  83 NW17      29.81R                  
FOREST CITY *  CLOUDY    46  43  87 N14       29.83R                  
IOWA FALLS *   CLOUDY    50  47  89 W17       29.82R                  
$$

IAZ007>011-017>019-026>030-037>042-050>054-066-200000-
   NORTHEAST IOWA
  
CITY           SKY/WX    TMP DP  RH WIND       PRES   REMARKS
CEDAR RAPIDS   CLOUDY    54  50  86 W22G28    29.77R                  
CHARLES CITY * CLOUDY    50  43  76 NW14G20   29.79R                  
CLINTON *      CLOUDY    58  53  84 W25G31    29.74R                  
DECORAH *        N/A     48  43  81 NW12G24   29.74R                  
DUBUQUE        CLOUDY    55  48  77 W15G26    29.74R                  
MONTICELLO *   CLOUDY    55  52  88 W17G25    29.75R                  
OELWEIN *      CLOUDY    52  48  87 NW18      29.77R                  
WATERLOO       CLOUDY    52  45  77 W9        29.78R                  
$$
 
IAZ064-065-067-068-078-200000-
   EAST CENTRAL IOWA
  
CITY           SKY/WX    TMP DP  RH WIND       PRES   REMARKS
DAVENPORT      CLOUDY    59  53  80 NW18G25   29.76R                  
IOWA CITY      CLOUDY    56  52  86 W16G24    29.79R                  
MT. PLEASANT * CLOUDY    61  54  77 W18G28    29.80R                  
MUSCATINE *    CLOUDY    59  54  82 W20G30    29.78R                  
QUAD CITIES    CLOUDY    62  56  80 W13       29.74R                  
$$
 
IAZ062-063-075>077-085>089-095>099-200000-
   SOUTHEAST IOWA
  
CITY           SKY/WX    TMP DP  RH WIND       PRES   REMARKS
BURLINGTON     CLOUDY    63  50  62 W18G30    29.77S                  
FAIRFIELD *    CLOUDY    57  52  82 W15G24    29.81R                  
FORT MADISON * PTSUNNY   63  54  72 W21G26    29.80R                  
KEOKUK *       CLOUDY    64  54  68 W21G26    29.80R                  
OSKALOOSA *    CLOUDY    55  50  83 NW22      29.83R                  
CENTERVILLE *  FAIR      57  52  82 W14       29.86R                  
OTTUMWA        CLOUDY    58  49  72 W17G29    29.82R                  
WASHINGTON *   CLOUDY    55  55 100 W17G28    29.81R                  
$$

ABBREVIATIONS USED IN REMARKS
   TC - TEMPERATURES IN CELSIUS
  WCI - WIND CHILL INDEX
   HX - HEAT INDEX
  VSB - VISIBILITY  
$$